[[{"header":{"parameterUnit":"m.s-1","parameterCategory":1,"la1":30.2991,"la2":30.254,"lo1":-89.0895,"lo2":-89.0444,"dy":0.0017,"dx":0.0017,"nx":28,"ny":28,"refTime":"2024-10-09T03:00:00:Z","depth":0,"parameterNumber":2,"parameterNumberName":"U-component_of_WINDS"},"data":[0,0,0,0,0,0,0,0,0,0,0,0,0,0,0,0,0,0,0,0,0,0,0,0,0,0,0,0,0,0,0,0,0,0,0,0,0,0,0,0,0,0,0,0,0,0,0,0,0,0,0,0,0,0,0,0,0,0,-0.3989,-0.3989,0,-0.3941,-0.3941,-0.394,-0.3935,-0.3935,-0.3936,-0.3936,-0.3884,-0.3883,-0.3881,0,0,0,0,0,0,0,0,0,0,0,0,0,-0.4073,-0.4072,-0.3989,-0.3989,-0.3988,-0.3941,-0.394,-0.394,-0.3935,-0.3935,-0.3936,-0.3937,-0.3885,-0.3883,-0.3881,0,0,0,0,0,0,0,0,0,0,0,0,0,-0.4032,-0.4071,-0.3989,-0.398,-0.3979,-0.3941,-0.394,-0.394,-0.3935,-0.3935,-0.3936,-0.3937,-0.3886,-0.3883,-0.388,-0.3848,0,0,-0.3872,-0.3871,0,0,0,0,0,0,0,0,-0.4034,-0.4029,-0.3982,-0.3981,-0.3979,-0.3945,-0.3951,-0.3909,-0.3934,-0.3951,-0.3936,-0.3937,-0.3904,-0.3899,-0.3889,-0.3846,-0.3843,-0.3872,-0.387,-0.3869,-0.3868,0,0,0,0,0,0,0,-0.4037,-0.4031,-0.397,-0.3981,-0.3979,-0.3977,-0.3972,-0.3943,-0.3924,-0.395,-0.3949,-0.3944,-0.3903,-0.3891,-0.3887,-0.3843,-0.3872,-0.3869,-0.3867,-0.3866,-0.3768,-0.3768,0,0,0,0,0,0,-0.4042,-0.4033,-0.3972,-0.3969,-0.4009,-0.3975,-0.3969,-0.3955,-0.3924,-0.392,-0.3943,-0.3944,-0.3896,-0.3891,-0.3886,-0.3844,-0.3869,-0.3866,-0.3864,-0.3769,-0.3768,-0.3767,0,0,0,0,0,0,-0.4044,-0.4037,-0.3974,-0.4001,-0.3993,-0.3973,-0.3957,-0.3954,-0.3942,-0.3919,-0.3915,-0.3935,-0.3896,-0.389,-0.3857,-0.3843,-0.3865,-0.3862,-0.377,-0.3769,-0.3768,-0.3763,0,0,0,0,0,0,-0.4047,-0.4038,-0.4026,-0.4001,-0.3991,-0.3947,-0.3956,-0.3952,-0.3938,-0.3938,-0.3911,-0.3907,-0.3896,-0.3861,-0.3854,-0.3839,-0.386,-0.3772,-0.377,-0.3768,-0.3764,-0.3761,-0.3759,0,0,0,0,0,-0.405,-0.4027,-0.4026,-0.4018,-0.3977,-0.3946,-0.3941,-0.393,-0.3937,-0.3924,-0.3909,-0.3908,-0.3846,-0.3858,-0.385,-0.3834,-0.3773,-0.377,-0.3768,-0.3765,-0.3762,-0.3759,0,0,0,0,0,0,-0.405,-0.4023,-0.4022,-0.399,-0.3971,-0.3946,-0.393,-0.3927,-0.3905,-0.3906,-0.3892,-0.3886,-0.3854,-0.3841,-0.3855,-0.38,-0.3809,-0.3806,-0.381,-0.3807,-0.3804,-0.3807,-0.3858,0,0,0,0,0,-0.4047,-0.4026,-0.4003,-0.3977,-0.3967,-0.395,-0.3936,-0.393,-0.3909,-0.39,-0.3883,-0.3862,-0.3837,-0.3821,-0.3797,-0.3762,-0.3755,-0.3747,-0.3745,-0.3743,-0.3739,-0.3718,-0.3713,-0.376,-0.376,-0.376,0,0,-0.4039,-0.4022,-0.4009,-0.3976,-0.3961,-0.3937,-0.3943,-0.3919,-0.3901,-0.3896,-0.3864,-0.3851,-0.3826,-0.3792,-0.3776,-0.378,-0.3725,-0.374,-0.3739,-0.3736,-0.3715,-0.3711,-0.3707,-0.3759,-0.3759,-0.3759,0,0,-0.4014,-0.3999,-0.3975,-0.3959,-0.3935,-0.3923,-0.3918,-0.3893,-0.3884,-0.3852,-0.3847,-0.3825,-0.3784,-0.3766,-0.3751,-0.3717,-0.3714,-0.3709,-0.3696,-0.3675,-0.3671,-0.3668,-0.3654,-0.3649,-0.3706,-0.3706,-0.3706,0,-0.4007,-0.3973,-0.3963,-0.3938,-0.3923,-0.3918,-0.3893,-0.3877,-0.3846,-0.3835,-0.3841,-0.3787,-0.377,-0.3731,-0.3722,-0.3711,-0.3703,-0.3712,-0.3673,-0.3669,-0.3666,-0.3652,-0.3647,-0.3706,-0.3706,-0.3706,-0.3706,0,-0.3965,-0.3942,-0.3925,-0.3896,-0.3879,-0.3854,-0.3838,-0.3822,-0.3816,-0.3804,-0.377,-0.375,-0.3721,-0.3711,-0.3705,-0.367,-0.3673,-0.3676,-0.3685,-0.3661,-0.3648,-0.3643,-0.3705,-0.3705,-0.3705,-0.3705,0,0,-0.3939,-0.3904,-0.3898,-0.3884,-0.3856,-0.3837,-0.3811,-0.3783,-0.3769,-0.3747,-0.3724,-0.3688,-0.369,-0.3673,-0.3665,-0.3647,-0.3619,-0.3652,-0.3651,-0.3645,-0.3577,-0.3574,-0.3569,-0.3617,-0.3616,-0.3616,-0.3578,0,-0.3909,-0.3864,-0.3853,-0.3814,-0.3791,-0.3785,-0.3762,-0.3742,-0.3729,-0.3706,-0.3692,-0.3666,-0.3672,-0.3661,-0.3643,-0.3627,-0.3605,-0.3629,-0.3594,-0.3593,-0.3599,-0.3562,-0.356,-0.3526,-0.3574,-0.3573,-0.3572,0,-0.3869,-0.3846,-0.3805,-0.3779,-0.3769,-0.3749,-0.3721,-0.37,-0.3677,-0.3668,-0.3649,-0.3643,-0.3613,-0.3624,-0.3583,-0.36,-0.3584,-0.3574,-0.3572,-0.3568,-0.358,-0.3556,-0.3515,-0.351,-0.3564,-0.3565,-0.3566,0,-0.3852,-0.3812,-0.3781,-0.3769,-0.3739,-0.3724,-0.371,-0.3687,-0.3671,-0.3647,-0.3636,-0.3608,-0.3593,-0.3571,-0.3557,-0.3566,-0.3516,-0.3526,-0.3507,-0.3507,-0.3496,-0.3497,-0.3451,-0.3488,-0.3488,-0.3488,-0.3488,0,-0.3819,-0.3793,-0.3773,-0.3754,-0.3724,-0.3712,-0.3682,-0.3668,-0.3648,-0.3625,-0.3618,-0.3596,-0.3579,-0.3554,-0.3543,-0.3509,-0.3502,-0.3494,-0.3491,-0.3494,-0.3495,-0.3483,-0.3484,-0.3487,-0.3487,-0.3487,-0.3488,0,-0.3795,-0.3781,-0.3747,-0.372,-0.3713,-0.3692,-0.3669,-0.3649,-0.3636,-0.3607,-0.3599,-0.3578,-0.3549,-0.3532,-0.3495,-0.3487,-0.3449,-0.3448,-0.3458,-0.3456,-0.3437,-0.3439,-0.3382,-0.3373,-0.3417,-0.3416,-0.3416,0,-0.3775,-0.3755,-0.3726,-0.3711,-0.3697,-0.3672,-0.3655,-0.3641,-0.3624,-0.3594,-0.3577,-0.3548,-0.3523,-0.3476,-0.3457,-0.3428,-0.3425,-0.3407,-0.342,-0.3423,-0.3423,-0.3424,-0.3421,-0.3404,-0.3404,-0.3404,-0.3403,0,-0.374,-0.3733,-0.371,-0.3683,-0.3663,-0.3641,-0.3619,-0.3607,-0.3589,-0.3569,-0.3539,-0.352,-0.3482,-0.3452,-0.3421,-0.3405,-0.34,-0.3399,-0.3393,-0.3395,-0.3401,-0.3396,-0.345,-0.34,-0.3401,-0.3401,-0.3401,-0.3401,-0.3716,-0.3697,-0.3674,-0.3647,-0.3629,-0.3609,-0.3589,-0.3573,-0.3548,-0.3516,-0.3509,-0.3477,-0.3452,-0.341,-0.3394,-0.3367,-0.337,-0.3362,-0.3359,-0.3357,-0.3355,-0.3406,-0.3362,-0.3362,-0.3362,-0.3362,-0.3362,0,-0.3679,-0.3664,-0.3639,-0.3609,-0.3587,-0.3586,-0.3561,-0.3543,-0.3515,-0.3492,-0.3468,-0.3433,-0.3403,-0.3381,-0.335,-0.3333,-0.333,-0.3325,-0.3326,-0.3322,-0.3355,-0.3363,-0.3328,-0.3328,-0.3328,-0.3328,-0.3328,-0.3328,-0.3657,-0.3625,-0.3616,-0.3574,-0.3558,-0.3527,-0.3513,-0.3493,-0.3475,-0.3436,-0.3411,-0.3397,-0.3374,-0.3341,-0.3313,-0.3307,-0.3296,-0.3291,-0.3285,-0.3316,-0.332,-0.3323,-0.333,-0.3289,-0.3289,-0.3253,-0.3253,-0.3253]},{"header":{"parameterUnit":"m.s-1","parameterCategory":1,"la1":30.2991,"la2":30.254,"lo1":-89.0895,"lo2":-89.0444,"dy":0.0017,"dx":0.0017,"nx":28,"ny":28,"refTime":"2024-10-09T03:00:00:Z","depth":0,"parameterNumber":3,"parameterNumberName":"V-component_of_WINDS"},"data":[0,0,0,0,0,0,0,0,0,0,0,0,0,0,0,0,0,0,0,0,0,0,0,0,0,0,0,0,0,0,0,0,0,0,0,0,0,0,0,0,0,0,0,0,0,0,0,0,0,0,0,0,0,0,0,0,0,0,-3.6553,-3.6554,0,-3.6601,-3.6601,-3.6602,-3.6642,-3.6643,-3.6643,-3.6644,-3.6688,-3.6689,-3.6689,0,0,0,0,0,0,0,0,0,0,0,0,0,-3.6497,-3.6498,-3.6553,-3.6554,-3.6555,-3.6601,-3.6601,-3.6602,-3.6642,-3.6643,-3.6643,-3.6644,-3.6688,-3.6689,-3.669,0,0,0,0,0,0,0,0,0,0,0,0,0,-3.653,-3.6498,-3.6553,-3.658,-3.6583,-3.66,-3.6601,-3.6602,-3.6642,-3.6643,-3.6644,-3.6644,-3.6687,-3.6689,-3.669,-3.6682,0,0,-3.6693,-3.6694,0,0,0,0,0,0,0,0,-3.6529,-3.6533,-3.6576,-3.6579,-3.6582,-3.6616,-3.6598,-3.6629,-3.6642,-3.662,-3.6644,-3.6645,-3.6663,-3.6666,-3.6674,-3.6685,-3.6686,-3.6693,-3.6694,-3.6694,-3.6695,0,0,0,0,0,0,0,-3.6526,-3.6531,-3.6572,-3.6576,-3.658,-3.659,-3.6595,-3.6604,-3.6637,-3.6622,-3.6625,-3.663,-3.6665,-3.6672,-3.6675,-3.6687,-3.6693,-3.6694,-3.6695,-3.6695,-3.6698,-3.6697,0,0,0,0,0,0,-3.652,-3.6529,-3.6571,-3.6573,-3.6557,-3.659,-3.6597,-3.6605,-3.6637,-3.6643,-3.6629,-3.6632,-3.667,-3.6674,-3.6677,-3.6672,-3.6694,-3.6695,-3.6696,-3.6698,-3.6698,-3.6697,0,0,0,0,0,0,-3.6519,-3.6523,-3.6569,-3.6552,-3.6558,-3.6591,-3.6599,-3.6605,-3.6613,-3.6643,-3.6649,-3.6631,-3.6671,-3.6675,-3.6682,-3.6674,-3.6696,-3.6697,-3.6699,-3.6698,-3.6697,-3.6662,0,0,0,0,0,0,-3.6517,-3.6523,-3.652,-3.6552,-3.6559,-3.6573,-3.6599,-3.6606,-3.6615,-3.6618,-3.6646,-3.6651,-3.6672,-3.668,-3.6683,-3.6676,-3.6698,-3.67,-3.6699,-3.6698,-3.6664,-3.666,-3.6657,0,0,0,0,0,-3.6515,-3.6507,-3.652,-3.6525,-3.6557,-3.6572,-3.6577,-3.6602,-3.6614,-3.6612,-3.6632,-3.665,-3.6675,-3.668,-3.6684,-3.6677,-3.67,-3.6699,-3.6698,-3.6666,-3.6661,-3.6657,0,0,0,0,0,0,-3.6471,-3.6511,-3.6526,-3.6528,-3.6547,-3.6579,-3.6577,-3.6596,-3.661,-3.6612,-3.6642,-3.6648,-3.6652,-3.6665,-3.6671,-3.6674,-3.669,-3.669,-3.6665,-3.666,-3.6657,-3.6653,-3.6699,0,0,0,0,0,-3.6462,-3.6472,-3.6507,-3.6505,-3.6514,-3.6544,-3.6552,-3.657,-3.659,-3.6598,-3.6618,-3.6636,-3.6648,-3.6655,-3.6668,-3.6667,-3.6674,-3.6665,-3.6661,-3.6658,-3.6657,-3.666,-3.6656,-3.6693,-3.6693,-3.6693,0,0,-3.6443,-3.6466,-3.647,-3.6497,-3.6514,-3.6524,-3.655,-3.6558,-3.6566,-3.6598,-3.6607,-3.6623,-3.6645,-3.6648,-3.6651,-3.6659,-3.6649,-3.6656,-3.6653,-3.6654,-3.6658,-3.6654,-3.6651,-3.6692,-3.6692,-3.6692,0,0,-3.6413,-3.6431,-3.6434,-3.6451,-3.6477,-3.6497,-3.6498,-3.6529,-3.6541,-3.655,-3.6576,-3.6585,-3.6605,-3.662,-3.6631,-3.6611,-3.6629,-3.6615,-3.6595,-3.6598,-3.6595,-3.6592,-3.6587,-3.6584,-3.6613,-3.6613,-3.6613,0,-3.6385,-3.6402,-3.6432,-3.644,-3.6452,-3.6484,-3.6487,-3.6502,-3.653,-3.6537,-3.6547,-3.6575,-3.6592,-3.6601,-3.6597,-3.6604,-3.6606,-3.6611,-3.6593,-3.6591,-3.6589,-3.6584,-3.6582,-3.6612,-3.6612,-3.6612,-3.6612,0,-3.6367,-3.6378,-3.6377,-3.6406,-3.6418,-3.6423,-3.6454,-3.6462,-3.6481,-3.6501,-3.6511,-3.6533,-3.6552,-3.6556,-3.6572,-3.6568,-3.6573,-3.6588,-3.6604,-3.6583,-3.6579,-3.6577,-3.6609,-3.661,-3.661,-3.6611,0,0,-3.6308,-3.6357,-3.6356,-3.6371,-3.6404,-3.6413,-3.6421,-3.6441,-3.6449,-3.6468,-3.6475,-3.6493,-3.6508,-3.652,-3.654,-3.6542,-3.6527,-3.6557,-3.6558,-3.6551,-3.6525,-3.6514,-3.6511,-3.654,-3.654,-3.6539,-3.6524,0,-3.6283,-3.63,-3.6329,-3.6337,-3.6348,-3.6382,-3.6389,-3.641,-3.6429,-3.6442,-3.6463,-3.6476,-3.6494,-3.6502,-3.6506,-3.6528,-3.6522,-3.653,-3.6547,-3.6547,-3.654,-3.6509,-3.6496,-3.648,-3.6522,-3.6522,-3.6522,0,-3.6256,-3.6277,-3.6286,-3.6321,-3.6327,-3.6333,-3.6356,-3.6368,-3.6393,-3.6408,-3.6423,-3.6446,-3.6456,-3.6472,-3.6488,-3.6492,-3.6501,-3.6513,-3.6514,-3.6516,-3.6533,-3.651,-3.6476,-3.6474,-3.6519,-3.6519,-3.652,0,-3.6214,-3.6243,-3.6253,-3.6265,-3.6306,-3.631,-3.6327,-3.6353,-3.6365,-3.6385,-3.6393,-3.6414,-3.6425,-3.644,-3.6467,-3.6477,-3.648,-3.6498,-3.6493,-3.6492,-3.6491,-3.649,-3.6457,-3.6497,-3.6497,-3.6497,-3.6497,0,-3.6183,-3.6187,-3.6235,-3.6241,-3.6248,-3.6282,-3.6287,-3.6308,-3.6332,-3.6342,-3.6372,-3.6381,-3.6417,-3.6431,-3.6452,-3.6463,-3.6467,-3.6479,-3.6485,-3.6477,-3.6475,-3.6482,-3.6484,-3.6496,-3.6496,-3.6496,-3.6496,0,-3.6135,-3.6167,-3.6181,-3.6221,-3.6231,-3.6234,-3.6268,-3.6275,-3.6298,-3.6312,-3.6317,-3.6352,-3.637,-3.64,-3.6426,-3.6441,-3.6447,-3.6456,-3.6439,-3.6443,-3.6436,-3.6436,-3.6406,-3.6404,-3.6444,-3.6443,-3.6443,0,-3.6113,-3.6118,-3.616,-3.617,-3.6187,-3.6203,-3.6217,-3.6251,-3.6264,-3.6296,-3.6299,-3.632,-3.6339,-3.6366,-3.6394,-3.6415,-3.6425,-3.6413,-3.6428,-3.6421,-3.6426,-3.6425,-3.6427,-3.6409,-3.6409,-3.6408,-3.6408,0,-3.6072,-3.6089,-3.6107,-3.6133,-3.6149,-3.617,-3.6192,-3.6199,-3.6238,-3.6251,-3.6271,-3.6286,-3.6315,-3.6336,-3.6361,-3.6378,-3.64,-3.6404,-3.6403,-3.6395,-3.6385,-3.6391,-3.643,-3.6403,-3.6404,-3.6404,-3.6404,-3.6405,-3.6037,-3.6044,-3.6075,-3.6096,-3.6118,-3.6139,-3.6149,-3.6175,-3.6193,-3.622,-3.624,-3.6259,-3.6287,-3.6324,-3.6341,-3.6357,-3.6366,-3.6365,-3.6365,-3.6365,-3.6362,-3.6383,-3.6361,-3.6361,-3.6361,-3.6362,-3.6362,0,-3.5997,-3.6021,-3.604,-3.6072,-3.6089,-3.6111,-3.6137,-3.615,-3.6167,-3.6193,-3.6212,-3.6236,-3.6258,-3.6289,-3.6312,-3.6319,-3.633,-3.6324,-3.6324,-3.6328,-3.6352,-3.635,-3.6315,-3.6315,-3.6315,-3.6315,-3.6315,-3.6316,-3.5979,-3.5993,-3.6014,-3.6039,-3.6062,-3.6083,-3.6097,-3.6117,-3.6138,-3.6165,-3.6184,-3.6205,-3.6233,-3.626,-3.6281,-3.629,-3.6297,-3.6289,-3.63,-3.6322,-3.6326,-3.633,-3.6328,-3.629,-3.629,-3.6275,-3.6275,-3.6275]}]]